Regional Weather Roundup
Issued by NWS

Home | Current Version | Previous Version | Text Only | Print | Product List | Glossary Off
Versions: 1 2 3 4 5 6 7 8 9 10 11 12 13 14 15 16 17 18 19 20 21 22 23 24 25 26 27 28 29 30 31 32 33 34 35 36 37 38 39 40 41 42 43 44 45 46 47 48 49 50

000
ASUS43 KLMK 201910
RWRKY
KENTUCKY REGIONAL WEATHER ROUNDUP
NATIONAL WEATHER SERVICE LOUISVILLE KY
200 PM EST THU NOV 20 2014

NOTE "FAIR" INDICATES FEW OR NO CLOUDS BELOW 12,000 FEET
WITH NO SIGNIFICANT WEATHER AND/OR OBSTRUCTIONS TO VISIBILITY.

KYZ001>023-026-027-061>063-070>075-202000-
WESTERN AND SOUTH CENTRAL KENTUCKY

CITY           SKY/WX    TMP DP  RH WIND       PRES   REMARKS
PADUCAH        SUNNY     40  22  48 MISG      30.23F
HENDERSON      SUNNY     36  19  51 W9        30.24F WCI  29
OWENSBORO      SUNNY     34  19  54 NW9       30.24F WCI  27
HOPKINSVILLE   NOT AVBL
BOWLING GREEN  SUNNY     41  18  39 W10       30.21F
GLASGOW        SUNNY     40  20  44 W10       30.20F WCI  34
$$

KYZ024-025-028>034-038-045-046-053-202000-
NORTH CENTRAL KENTUCKY

CITY           SKY/WX    TMP DP  RH WIND       PRES   REMARKS
LOUISVILLE/SDF MOSUNNY   34  16  47 W10G17    30.20F WCI  26
LOUISVILLE/LOU SUNNY     32  16  51 SW10G16   30.20F WCI  24
FORT KNOX      SUNNY     33  18  53 SW12G21   30.18S WCI  25
$$

KYZ035>037-039>044-047>052-055>060-089>105-202000-
NORTHEAST KENTUCKY

CITY           SKY/WX    TMP DP  RH WIND       PRES   REMARKS
LEXINGTON      SUNNY     34  16  47 W10       30.16F WCI  26
COVINGTON      MOSUNNY   30  13  49 W14       30.13F WCI  19
FRANKFORT      SUNNY     32  15  49 SW10G21   30.16F WCI  24
$$

KYZ054-064>069-076>088-106>120-202000-
SOUTHEAST KENTUCKY

CITY           SKY/WX    TMP DP  RH WIND       PRES   REMARKS
JACKSON        SUNNY     42  17  36 W6        30.10F
LONDON         SUNNY     42  15  33 W16G23    30.14F
SOMERSET       SUNNY     39  18  41 SW12      30.18F WCI  32
MIDDLESBORO    SUNNY     47  24  40 W10       30.13F
MONTICELLO     CLEAR     44  17  34 W9G18     30.19F
$$



USA.gov is the U.S. government's official web portal to all federal, state and local government web resources and services.